• Processing (Info)

  • MPEC 2000-N09 : 2000 EE173

    The following Minor Planet Electronic Circular may be linked-to from your own Web pages, but must not otherwise be redistributed electronically.

    A form allowing access to any MPEC is at the bottom of this page.


    Read MPEC 2000-N08 Read MPEC 2000-N10


    M.P.E.C. 2000-N09                                Issued 2000 July 4, 23:45 UT
    
         The Minor Planet Electronic Circulars contain information on unusual
             minor planets and routine data on comets.  They are published
       on behalf of Commission 20 of the International Astronomical Union by the
              Minor Planet Center, Smithsonian Astrophysical Observatory,
                              Cambridge, MA 02138, U.S.A.
    
                 Prepared using the Tamkin Foundation Computer Network
    
                 BMARSDEN@CFA.HARVARD.EDU or GWILLIAMS@CFA.HARVARD.EDU
              URL http://cfa-www.harvard.edu/iau/mpc.html  ISSN 1523-6714
    
                                      2000 EE173
    
    Observations:
         K00EH3E*9C2000 03 03.17021 09 25 16.97 +12 13 31.1          22.8 R      695
         K00EH3E 9C2000 03 03.21813 09 25 16.64 +12 13 33.0          22.8 R      695
         K00EH3E 9C2000 03 03.26653 09 25 16.30 +12 13 34.4          22.8 R      695
         K00EH3E 1C2000 03 15.45933 09 23 57.92 +12 19 49.2                      568
         K00EH3E 1C2000 03 15.47773 09 23 57.80 +12 19 49.6                      568
         K00EH3E 1C2000 03 15.52000 09 23 57.57 +12 19 50.8                      568
         K00EH3E 1C2000 04 05.30954 09 22 23.49 +12 27 55.0          22.2 R      568
         K00EH3E 1C2000 04 05.41164 09 22 23.14 +12 27 56.5          22.3 R      568
         K00EH3E 1C2000 06 01.27097 09 23 45.57 +12 24 44.1          22.3 R      568
         K00EH3E 1C2000 06 01.27681 09 23 45.61 +12 24 44.0          22.4 R      568
    
    Observer details:
    568 Mauna Kea.  Observers D. C. Jewitt, S. S. Sheppard, C. A. Trujillo,
        D. J. Tholen.  2.2-m University of Hawaii reflector + CCD.
    695 Kitt Peak.  Observers J. X. Luu, C. A. Trujillo, W. Evans.
        0.9-m reflector + CCD.
    
    Orbital elements:
    2000 EE173
    Epoch 2000 Apr. 6.0 TT = JDT 2451640.5                  Marsden
    M 352.41670              (2000.0)            P               Q
    n   0.00268982     Peri.  239.02136     -0.98843040     -0.11854707
    a  51.2059513      Node   294.02442     +0.14813568     -0.88848901
    e   0.5647708      Incl.    5.94584     -0.03257545     -0.44332141
    P 366              H    9.0           G   0.15
    From 10 observations 2000 Mar. 3-June 1.
    
    Ephemeris:
    2000 EE173               a,e,i = 51.21, 0.56, 6                  q = 22.286
    Date    TT    R. A. (2000) Decl.     Delta      r     Elong.  Phase     V
    2000 09 23    09 42.78   +10 47.1   24.225   23.421    36.0     1.4    23.0
    2000 10 03    09 44.32   +10 37.7   24.104   23.412    45.4     1.7    23.0
    2000 10 13    09 45.67   +10 29.2   23.964   23.404    54.9     2.0    23.0
    2000 10 23    09 46.81   +10 21.5   23.807   23.396    64.5     2.2    23.0
    2000 11 02    09 47.72   +10 14.9   23.638   23.388    74.2     2.3    23.0
    2000 11 12    09 48.37   +10 09.6   23.461   23.380    84.1     2.4    23.0
    2000 11 22    09 48.74   +10 05.7   23.281   23.372    94.0     2.4    22.9
    2000 12 02    09 48.84   +10 03.2   23.104   23.364   104.1     2.3    22.9
    2000 12 12    09 48.65   +10 02.2   22.933   23.356   114.3     2.2    22.9
    2000 12 22    09 48.20   +10 02.7   22.776   23.348   124.5     2.0    22.9
    2001 01 01    09 47.50   +10 04.6   22.635   23.340   134.9     1.7    22.8
    2001 01 11    09 46.58   +10 07.7   22.517   23.332   145.3     1.4    22.8
    2001 01 21    09 45.50   +10 12.0   22.424   23.324   155.7     1.0    22.7
    2001 01 31    09 44.28   +10 17.1   22.359   23.316   166.0     0.6    22.7
    2001 02 10    09 43.00   +10 22.9   22.324   23.308   175.5     0.2    22.6
    2001 02 20    09 41.70   +10 29.0   22.320   23.300   172.1     0.3    22.7
    2001 03 02    09 40.44   +10 35.1   22.347   23.292   162.1     0.7    22.7
    2001 03 12    09 39.29   +10 40.9   22.403   23.284   151.9     1.2    22.8
    2001 03 22    09 38.28   +10 46.2   22.486   23.277   141.8     1.5    22.8
    2001 04 01    09 37.46   +10 50.7   22.593   23.269   131.7     1.8    22.8
    2001 04 11    09 36.87   +10 54.2   22.719   23.261   121.7     2.1    22.9
    2001 04 21    09 36.53   +10 56.6   22.861   23.254   111.8     2.3    22.9
    2001 05 01    09 36.46   +10 57.8   23.014   23.246   102.1     2.4    22.9
    2001 05 11    09 36.66   +10 57.6   23.173   23.238    92.5     2.5    22.9
    2001 05 21    09 37.13   +10 56.0   23.333   23.231    83.0     2.5    22.9
    2001 05 31    09 37.86   +10 53.1   23.489   23.223    73.6     2.4    23.0
    2001 06 10    09 38.84   +10 48.8   23.638   23.216    64.3     2.3    23.0
    2001 06 20    09 40.04   +10 43.3   23.775   23.208    55.0     2.1    23.0
    2001 06 30    09 41.45   +10 36.6   23.897   23.201    45.9     1.8    22.9
    2001 07 10    09 43.02   +10 28.9   23.999   23.193    36.8     1.5    22.9
    
    Brian G. Marsden             (C) Copyright 2000 MPC           M.P.E.C. 2000-N09
    

    Read MPEC 2000-N08 Read MPEC 2000-N10


    MPEC number:

    Enter an MPEC number in one of the following forms:

    • 1997-B01 (the full form)
    • J97B01 (the packed version of the full form)
    • B01 (the abbreviated form)